Regional Weather Roundup
Issued by NWS

Home | Current Version | Previous Version | Graphics & Text | Print | Product List | Glossary On
Versions: 1 2 3 4 5 6 7 8 9 10 11 12 13 14 15 16 17 18 19 20 21 22 23 24 25 26 27 28 29 30 31 32 33 34 35 36 37 38 39 40 41 42 43 44 45 46 47 48 49 50
000
ASUS45 KBOU 020707
RWRCO

WEATHER ROUNDUP FOR COLORADO
NATIONAL WEATHER SERVICE DENVER/BOULDER CO
100 AM MDT WED SEP 02 2015

NOTE: "FAIR" INDICATES FEW OR NO CLOUDS BELOW 12000 FEET WITH NO
SIGNIFICANT WEATHER AND/OR OBSTRUCTIONS TO VISIBILITY.

COZ001>005-013-030-031-020800-
...NORTHWEST COLORADO...

CITY           SKY/WX    TMP DP  RH WIND       PRES   REMARKS
CRAIG          PTCLDY    53  44  71 CALM      30.22R
HAYDEN         NOT AVBL
MEEKER         PTCLDY    51  46  83 MISG      30.24R
MOUNT WERNER   NOT AVBL
STEAMBOAT SPGS PTCLDY    54  43  67 CALM      30.27R
WALDEN         MOCLDY    50  37  62 E7        30.33S
$$

COZ006>008-011-020800-
...WEST CENTRAL VALLEYS...

CITY           SKY/WX    TMP DP  RH WIND       PRES   REMARKS
GRAND JUNCTION PTCLDY    64  50  60 E8        30.14S
MONTROSE       LGT RAIN  64  50  60 E6        30.24S
EAGLE          PTCLDY    54  50  87 CALM      30.33S
RIFLE          CLEAR     57  51  80 SW7       30.23R
DELTA          PTCLDY    67  51  57 NE6       30.20S
NUCLA          PTCLDY    63  46  55 N5        30.26R
$$

COZ017>023-064>068-020800-
...SOUTHWEST COLORADO...

CITY           SKY/WX    TMP DP  RH WIND       PRES   REMARKS
DURANGO        PTCLDY    59  45  59 CALM      30.26S
CORTEZ         CLEAR     57  47  69 SE3       30.22R
PAGOSA SPRINGS CLOUDY    61  41  48 NE3       30.34S
TELLURIDE      MOCLDY    53  49  85 SE6       30.46F
WOLF CREEK PAS NOT AVBL
$$

COZ009-010-012-014-032>034-037-058>063-020800-
...CENTRAL COLORADO...

CITY           SKY/WX    TMP DP  RH WIND       PRES   REMARKS
ASPEN          PTCLDY    53  46  77 SE9       30.36F
BUENA VISTA    CLOUDY    55  47  74 NW16G23   30.38F
COPPER MTN     CLOUDY    45  37  76 S24       30.61F
BERTHOUD PASS  FAIR      37  27  65 W14G25    30.64F
COTTONWOOD PAS CLOUDY    52  43  71 NW7       30.49F
GUNNISON       PTCLDY    54  46  76 W5        30.41S
KREMMLING      PTCLDY    52  45  76 W3        30.35S
LEADVILLE      LGT RAIN  45  45 100 E8        30.50F
MONARCH PASS   MOCLDY    43  39  87 W16       30.73S
SALIDA         CLOUDY    62  48  61 NW7       30.43R
SUNLIGHT       CLEAR     46  41  81 CALM      30.56S
WILKERSON PASS CLOUDY    43  37  81 W13       30.61R
$$

COZ069>075-020800-
...SAN LUIS VALLEY/SANGRE DE CRISTO MOUNTAINS...

CITY           SKY/WX    TMP DP  RH WIND       PRES   REMARKS
ALAMOSA        PTCLDY    49  44  83 CALM      30.34R
LA VETA PASS   PTCLDY    52  41  66 S9G16     30.49F
SAGUACHE       PTCLDY    55  45  67 NW14      30.38R
$$

COZ035-036-038>040-020800-
...NORTHERN COLORADO FRONT RANGE...

CITY           SKY/WX    TMP DP  RH WIND       PRES   REMARKS
DENVER INTL AP MOCLDY    69  45  41 S12       30.10R
DMNS CITY PARK   N/A     71  43  36 SW9       30.10S
AURORA         MOCLDY    69  46  43 SW14      30.14R
FRONT RANGE AP NOT AVBL
ERIE MUNI ARPT MOCLDY    63  48  56 NE5       30.07S
BOULDER MUN AP MOCLDY    73  41  31 W13       30.07F
CENTENNIAL     MOCLDY    67  46  47 SW18G29   30.14R
BROOMFIELD     MOCLDY    72  41  33 W18G26    30.11S
FORT COLLINS   PTCLDY    64  48  55 SW3       30.08S
LONGMONT       PTCLDY    67  47  48 E6        30.08F
$$

COZ041-046-047-076>085-087-088-020800-
...PIKES PEAK/PALMER DIVIDE AND SOUTHERN FOOTHILLS...

CITY           SKY/WX    TMP DP  RH WIND       PRES   REMARKS
COLO. SPRINGS  MOCLDY    63  51  65 NW5       30.20F
A. F. ACADEMY  MOCLDY    58  50  73 NE5       30.22S
ELLICOTT       MOCLDY   N/A N/A N/A CALM      30.19S
FALCON         MOCLDY    56  46  69 MISG      30.25F
FORT CARSON    CLOUDY    65  49  55 SW3       30.16F
LIMON          PTCLDY    59  51  75 NW9       30.12S
MONUMENT HILL  MOCLDY    59  45  58 S8        30.24S
TRINIDAD       CLEAR     63  47  55 W6        30.17S
$$

COZ042>045-048>051-090-091-020800-
...NORTHEAST COLORADO...

CITY           SKY/WX    TMP DP  RH WIND       PRES   REMARKS
GREELEY ARPT   PTCLDY    59  46  63 CALM      30.05F
AKRON          CLEAR     68  48  48 W13       30.05S
BURLINGTON     MOCLDY    64  57  78 W5        30.02F
WRAY           CLOUDY    69  59  70 W8        29.98S
STERLING       NOT AVBL
HOLYOKE        CLEAR     66  59  77 SW6       29.98S
FORT MORGAN    CLEAR     63  45  51 W3        30.05S
$$

COZ086-089-092>099-020800-
...SOUTHEAST COLORADO...

CITY           SKY/WX    TMP DP  RH WIND       PRES   REMARKS
PUEBLO         PTCLDY    69  52  54 N12       30.09S
LA JUNTA       MOCLDY    73  52  47 SW10      30.04S
LAMAR          PTCLDY    68  56  65 S9        29.99F
SPRINGFIELD      N/A     69  56  62 SW15      30.06F
$$




USA.gov is the U.S. government's official web portal to all federal, state and local government web resources and services.